This is the latest recevied weather packets stored in our database for station/object KC5TIL. If no packets are shown the sender has not sent any weather packets the latest 10 day(s).
| Time | Temp. | Humidity | Pressure | Rain* | Wind** | Luminosity | Snow |
|---|---|---|---|---|---|---|---|
| 1788443312 | 26.67° C | 83% | 1014.8 hPa | 0 mm | - | 70 W/m² | - |
| 1788443007 | 26.67° C | 83% | 1014.7 hPa | 0 mm | - | 67 W/m² | - |
| 1788442706 | 26.11° C | 83% | 1014.9 hPa | 0 mm | - | 63 W/m² | - |
| 1788442402 | 26.11° C | 83% | 1014.7 hPa | 0 mm | - | 62 W/m² | - |
| 1788442101 | 26.11° C | 83% | 1014.5 hPa | 0 mm | - | 63 W/m² | - |
| 1788441792 | 26.11° C | 84% | 1014.5 hPa | 0 mm | - | 62 W/m² | - |
| 1788441487 | 26.11° C | 84% | 1014.5 hPa | 0 mm | - | 53 W/m² | - |
| 1788441187 | 26.11° C | 84% | 1014.5 hPa | 0 mm | - | 43 W/m² | - |
| 1788440881 | 26.11° C | 85% | 1014.6 hPa | 0 mm | - | 41 W/m² | - |
| 1788440576 | 25.56° C | 85% | 1014.8 hPa | 0 mm | - | 36 W/m² | - |
| 1788440274 | 25.56° C | 85% | 1014.6 hPa | 0 mm | - | 26 W/m² | - |
| 1788439970 | 25.56° C | 85% | 1014.6 hPa | 0 mm | - | 19 W/m² | - |
| 1788439669 | 25.56° C | 85% | 1014.8 hPa | 0 mm | - | 14 W/m² | - |
| 1788439365 | 25.56° C | 85% | 1014.7 hPa | 0 mm | - | 11 W/m² | - |
| 1788439063 | 25.56° C | 85% | 1014.6 hPa | 0 mm | - | 8 W/m² | - |
| 1788438762 | 25.56° C | 85% | 1014.5 hPa | 0 mm | - | 7 W/m² | - |
| 1788438461 | 25.56° C | 85% | 1014.4 hPa | 0 mm | - | 6 W/m² | - |
| 1788438156 | 25.56° C | 85% | 1014.4 hPa | 0 mm | - | 5 W/m² | - |
| 1788437854 | 25.56° C | 85% | 1014.5 hPa | 0 mm | - | 3 W/m² | - |
| 1788437551 | 25.56° C | 85% | 1014.4 hPa | 0 mm | - | 2 W/m² | - |
| 1788437251 | 25.56° C | 84% | 1014.4 hPa | 0 mm | - | 0 W/m² | - |
| 1788436944 | 25.56° C | 84% | 1014.3 hPa | 0 mm | - | 0 W/m² | - |
| 1788436643 | 25.56° C | 84% | 1014.4 hPa | 0 mm | - | 0 W/m² | - |
| 1788436338 | 25.56° C | 84% | 1014.5 hPa | 0 mm | - | 0 W/m² | - |
| 1788436032 | 25.56° C | 84% | 1014.6 hPa | 0 mm | - | 0 W/m² | - |
* Rain latest hour (hover to see other rain measurements)
** Current wind speed in m/s (hover to see current wind gust speed)